Phoenix, AZ

9:06 PM MST on July 27, 2017 (GMT -0700)
Phoenix Sky Harbor International

Weather History for KPHX - April, 2014

Change the Weather History Date:

Saturday, April 26, 2014

  Actual Average Record
Temperature  
Mean Temperature 68 °F 76 °F  
Max Temperature 76 °F 88 °F 101 °F (1992)
Min Temperature 59 °F 63 °F 42 °F (1964)
Degree Days  
Heating Degree Days 0 0  
Month to date heating degree days 5 17  
Since 1 July heating degree days 546 931  
Cooling Degree Days 3 11  
Month to date cooling degree days 269 204  
Year to date cooling degree days 468 308  
Growing Degree Days 20 (Base 50)    
Moisture  
Dew Point 33 °F    
Average Humidity 27    
Maximum Humidity 40    
Minimum Humidity 14    
Precipitation  
Precipitation T in 0.00 in 0.20 in (1951)
Month to date precipitation T 0.26  
Year to date precipitation 0.99 3.08  
Snow  
Snow 0.00 in - - ()
Month to date snowfall 0.0  
Year to date snowfall 0.0  
Since 1 July snowfall 0.0  
Snow Depth 0.00 in    
Sea Level Pressure  
Sea Level Pressure 29.69 in    
Wind  
Wind Speed 16 mph (West)    
Max Wind Speed 33 mph    
Max Gust Speed 41 mph    
Visibility 10 miles    
Events Rain    
T = Trace of Precipitation, MM = Missing Value Source: NWS Daily Summary

Daily Weather History Graph

Daily Weather History Graph

Search for Another Location

Airport or City:

Trip Planner

Search our weather history database for the weather conditions in past years. The results will help you decide how hot, cold, wet, or windy it might be!

Date:

Astronomy

Apr. 26, 2014 Rise Set
Actual Time 5:44 AM MST 7:07 PM MST
Civil Twilight 5:18 AM MST 7:33 PM MST
Nautical Twilight 4:47 AM MST 8:04 PM MST
Astronomical Twilight 4:15 AM MST 8:37 PM MST
Moon 4:02 AM MST (4/26) 4:46 PM MST (4/26)
Length of Visible Light 14h 14m
Length of Day
13h 22m
Waning Crescent, 7% of the Moon is Illuminated
Apr 26
Waning Crescent
Apr 28
New
May 6
First Quarter
May 14
Full
May 21
Last Quarter

Hourly Weather History & Observations

Time (MST) Temp. Dew Point Humidity Pressure Visibility Wind Dir Wind Speed Gust Speed Precip Events Conditions
12:51 AM 75.0 °F 39.0 °F 27% 29.61 in 10.0 mi WSW 12.7 mph - N/A   Mostly Cloudy
1:51 AM 73.0 °F 37.0 °F 27% 29.59 in 10.0 mi WSW 11.5 mph - N/A   Scattered Clouds
2:51 AM 72.0 °F 39.0 °F 30% 29.59 in 10.0 mi West 13.8 mph - N/A   Scattered Clouds
3:51 AM 70.0 °F 42.1 °F 36% 29.58 in 10.0 mi West 10.4 mph - N/A   Scattered Clouds
4:51 AM 70.0 °F 44.1 °F 39% 29.58 in 10.0 mi WSW 8.1 mph - N/A   Mostly Cloudy
5:51 AM 69.1 °F 45.0 °F 42% 29.58 in 10.0 mi WSW 8.1 mph - N/A   Mostly Cloudy
6:51 AM 66.9 °F 41.0 °F 39% 29.60 in 10.0 mi WSW 12.7 mph - N/A   Overcast
7:51 AM 66.9 °F 39.0 °F 36% 29.63 in 10.0 mi West 15.0 mph - N/A   Overcast
8:51 AM 66.0 °F 37.9 °F 36% 29.66 in 10.0 mi WSW 16.1 mph 26.5 mph N/A   Overcast
9:51 AM 64.9 °F 39.9 °F 40% 29.70 in 10.0 mi WNW 26.5 mph - N/A   Mostly Cloudy
10:51 AM 63.0 °F 39.9 °F 43% 29.73 in 10.0 mi WNW 31.1 mph 40.3 mph 0.00 in Rain Light Rain
11:51 AM 68.0 °F 28.9 °F 23% 29.73 in 10.0 mi SW 24.2 mph 32.2 mph 0.00 in   Mostly Cloudy
12:51 PM 72.0 °F 21.0 °F 15% 29.70 in 10.0 mi SW 21.9 mph 32.2 mph N/A   Partly Cloudy
1:51 PM 73.4 °F 21.2 °F 14% 29.73 in 10.0 mi WSW 29.9 mph 40.3 mph N/A   Partly Cloudy
2:51 PM 72.0 °F 21.9 °F 15% 29.70 in 10.0 mi West 21.9 mph 32.2 mph N/A   Partly Cloudy
3:51 PM 73.0 °F 25.0 °F 17% 29.70 in 10.0 mi West 29.9 mph 40.3 mph N/A   Partly Cloudy
4:51 PM 73.0 °F 26.1 °F 17% 29.71 in 10.0 mi West 15.0 mph 27.6 mph N/A   Partly Cloudy
5:51 PM 71.1 °F 27.0 °F 19% 29.72 in 10.0 mi West 17.3 mph - N/A   Partly Cloudy
6:51 PM 70.0 °F 27.0 °F 20% 29.73 in 10.0 mi WNW 18.4 mph - N/A   Partly Cloudy
7:51 PM 69.1 °F 27.0 °F 21% 29.76 in 10.0 mi NW 11.5 mph - N/A   Partly Cloudy
8:51 PM 68.0 °F 28.9 °F 23% 29.78 in 10.0 mi NNW 10.4 mph - N/A   Clear
9:51 PM 66.2 °F 30.2 °F 26% 29.83 in 10.0 mi North 4.6 mph - N/A   Partly Cloudy
10:51 PM 64.0 °F 30.9 °F 29% 29.81 in 10.0 mi SSW 4.6 mph - N/A   Partly Cloudy
11:51 PM 63.0 °F 30.9 °F 30% 29.81 in 10.0 mi SW 3.5 mph - N/A   Partly Cloudy